ETNS

Details ICAO ETNS
Name SCHLESWIG
Region Germany - Military
Timezone Europe/Berlin (UTC+2.0)
Plans Departing 6
Arriving 3
Stats Elevation 70 ft / 21 m (AMSL)
Location 54.458625° 9.516833°
Runways 2
Magnetic Variation 2.705° E
Sunrise 2018-05-25 03:03:29 UTC / 2018-05-25 05:03:29 Local
Sunset 2018-05-25 19:37:08 UTC / 2018-05-25 21:37:08 Local
Advertisement - Login to hide

Runways

ID Width Length Bearing (true) Bearing (mag) Surface Threshold Offset Overrun Length
05 98 ft / 30 m 7,969 ft / 2,429 m 47.79° 45.08° Asphalt 0 ft / 0 m 1,089 ft / 332 m
07 148 ft / 45 m 6,536 ft / 1,992 m 73.22° 70.51° Asphalt 0 ft / 0 m 301 ft / 92 m
23 98 ft / 30 m 7,969 ft / 2,429 m 227.82° 225.11° Asphalt 0 ft / 0 m 1,017 ft / 310 m
25 148 ft / 45 m 6,536 ft / 1,992 m 253.24° 250.53° Asphalt 0 ft / 0 m 305 ft / 93 m

Map

Weather


0- 5 10 15 20 25 30 35+ Temperature / ° C

Clouds and Precipitation
Forecast for 2018-05-25 18:00 UTC. Updated 21 minutes ago

Ground ~20,000 ft ~40,000 ft Winds

METAR

ETNS 251720Z AUTO 07014KT 8000 // ////// 19/04 Q1023 ///

TAF

Not found

Frequencies

Tower 125.10 MHz BREMEN INFO
Approach 135.15 MHz RADAR
Approach 123.30 MHz RADAR
Warning: Do not use this data for real-world aviation or navigation. No guarantee of current accuracy is given.